Time,TemperatureF,DewpointF,PressureIn,WindDirection,WindDirectionDegrees,WindSpeedMPH,WindSpeedGustMPH,Humidity,HourlyPrecipIn,Conditions,Clouds,dailyrainin,SoftwareType,DateUTC
2013-02-07 00:02:00,34.0,34.0,-100.00,North,0,12.0,14.0,95,0.00,,,0.00,,2013-02-07 06:02:00,
2013-02-07 00:11:00,34.0,32.0,-100.00,North,5,10.0,15.0,95,0.00,,,0.00,,2013-02-07 06:11:00,
2013-02-07 00:22:00,33.0,32.0,-100.00,North,0,10.0,15.0,95,0.00,,,0.00,,2013-02-07 06:22:00,
2013-02-07 00:31:00,33.0,32.0,-100.00,North,10,10.0,12.0,95,0.00,,,0.00,,2013-02-07 06:31:00,
2013-02-07 00:43:00,33.0,32.0,-100.00,North,10,9.0,11.0,96,0.00,,,0.00,,2013-02-07 06:43:00,
2013-02-07 00:52:00,32.0,32.0,-100.00,North,0,12.0,15.0,96,0.00,,,0.00,,2013-02-07 06:52:00,
2013-02-07 01:01:00,32.0,32.0,-100.00,North,0,12.0,15.0,97,0.00,,,0.00,,2013-02-07 07:01:00,
2013-02-07 01:11:00,32.0,32.0,-100.00,North,0,14.0,16.0,97,0.00,,,0.00,,2013-02-07 07:11:00,
2013-02-07 01:41:00,31.0,30.0,-100.00,North,0,9.0,15.0,98,0.00,,,0.00,,2013-02-07 07:41:00,
2013-02-07 01:52:00,31.0,30.0,-100.00,North,0,11.0,13.0,98,0.00,,,0.00,,2013-02-07 07:52:00,
2013-02-07 02:01:00,31.0,30.0,-100.00,North,10,13.0,17.0,99,0.00,,,0.00,,2013-02-07 08:01:00,
2013-02-07 02:11:00,31.0,30.0,-100.00,North,10,15.0,19.0,99,0.00,,,0.00,,2013-02-07 08:11:00,
2013-02-07 02:32:00,29.0,28.0,-100.00,NNE,20,17.0,20.0,99,0.00,,,0.00,,2013-02-07 08:32:00,
2013-02-07 02:42:00,29.0,28.0,-100.00,NNE,15,18.0,22.0,99,0.00,,,0.00,,2013-02-07 08:42:00,
2013-02-07 02:52:00,29.0,28.0,-100.00,NNE,25,16.0,21.0,99,0.00,,,0.00,,2013-02-07 08:52:00,
2013-02-07 03:01:00,29.0,28.0,-100.00,NNE,25,16.0,23.0,99,0.00,,,0.00,,2013-02-07 09:01:00,
2013-02-07 03:11:00,29.0,28.0,-100.00,NNE,20,13.0,18.0,99,0.00,,,0.00,,2013-02-07 09:11:00,
2013-02-07 03:31:00,29.0,28.0,-100.00,NNE,20,12.0,21.0,99,0.00,,,0.00,,2013-02-07 09:31:00,
2013-02-07 03:41:00,29.0,28.0,-100.00,NNE,20,16.0,19.0,99,0.00,,,0.00,,2013-02-07 09:41:00,
2013-02-07 03:51:00,29.0,28.0,-100.00,NNE,20,14.0,19.0,99,0.00,,,0.00,,2013-02-07 09:51:00,
2013-02-07 04:01:00,29.0,28.0,-100.00,NNE,15,15.0,19.0,99,0.00,,,0.00,,2013-02-07 10:01:00,
2013-02-07 04:11:00,28.0,28.0,-100.00,NNE,20,13.0,20.0,99,0.00,,,0.00,,2013-02-07 10:11:00,
2013-02-07 04:41:00,27.0,27.0,-100.00,NNE,25,16.0,20.0,99,0.00,,,0.00,,2013-02-07 10:41:00,
2013-02-07 04:51:00,27.0,27.0,-100.00,NNE,15,14.0,19.0,99,0.00,,,0.00,,2013-02-07 10:51:00,
2013-02-07 05:01:00,27.0,27.0,-100.00,NNE,20,14.0,19.0,99,0.00,,,0.00,,2013-02-07 11:01:00,
2013-02-07 05:11:00,27.0,27.0,-100.00,North,10,12.0,17.0,99,0.00,,,0.00,,2013-02-07 11:11:00,
2013-02-07 05:52:00,26.0,25.0,-100.00,NNE,20,14.0,19.0,99,0.00,,,0.00,,2013-02-07 11:52:00,
2013-02-07 06:02:00,26.0,25.0,-100.00,North,10,13.0,16.0,99,0.00,,,0.00,,2013-02-07 12:02:00,
2013-02-07 06:11:00,26.0,25.0,-100.00,NNE,15,13.0,17.0,99,0.00,,,0.00,,2013-02-07 12:11:00,
2013-02-07 06:22:00,25.0,25.0,-100.00,North,0,12.0,17.0,99,0.00,,,0.00,,2013-02-07 12:22:00,
2013-02-07 06:32:00,25.0,25.0,-100.00,North,10,12.0,17.0,99,0.00,,,0.00,,2013-02-07 12:32:00,
2013-02-07 06:42:00,25.0,25.0,-100.00,North,10,14.0,16.0,99,0.00,,,0.00,,2013-02-07 12:42:00,
2013-02-07 06:52:00,25.0,25.0,-100.00,NNE,25,12.0,17.0,99,0.00,,,0.00,,2013-02-07 12:52:00,
2013-02-07 07:02:00,25.0,25.0,-100.00,North,5,14.0,17.0,99,0.00,,,0.00,,2013-02-07 13:02:00,
2013-02-07 07:12:00,25.0,25.0,-100.00,North,5,15.0,18.0,99,0.00,,,0.00,,2013-02-07 13:12:00,
2013-02-07 11:01:00,25.0,25.0,-100.00,North,355,14.0,16.0,98,0.00,,,0.00,,2013-02-07 17:01:00,
2013-02-07 11:11:00,25.0,25.0,-100.00,North,0,11.0,16.0,98,0.00,,,0.00,,2013-02-07 17:11:00,
2013-02-07 11:21:00,25.0,25.0,-100.00,North,0,16.0,17.0,97,0.00,,,0.00,,2013-02-07 17:21:00,
2013-02-07 11:31:00,25.0,25.0,-100.00,North,0,16.0,19.0,97,0.00,,,0.00,,2013-02-07 17:31:00,
2013-02-07 11:42:00,25.0,25.0,-100.00,North,5,16.0,18.0,96,0.00,,,0.00,,2013-02-07 17:42:00,
2013-02-07 11:52:00,25.0,25.0,-100.00,North,0,16.0,18.0,96,0.00,,,0.00,,2013-02-07 17:52:00,
2013-02-07 12:01:00,25.0,25.0,-100.00,North,355,16.0,19.0,96,0.00,,,0.00,,2013-02-07 18:01:00,
2013-02-07 12:11:00,25.0,25.0,-100.00,North,0,16.0,18.0,95,0.00,,,0.00,,2013-02-07 18:11:00,
2013-02-07 12:23:00,26.0,25.0,-100.00,North,0,14.0,17.0,95,0.00,,,0.00,,2013-02-07 18:23:00,
2013-02-07 12:32:00,26.0,25.0,-100.00,North,0,16.0,17.0,95,0.00,,,0.00,,2013-02-07 18:32:00,
2013-02-07 12:41:00,26.0,25.0,-100.00,North,0,12.0,19.0,94,0.00,,,0.00,,2013-02-07 18:41:00,
2013-02-07 12:51:00,26.0,25.0,-100.00,North,0,16.0,19.0,94,0.00,,,0.00,,2013-02-07 18:51:00,
2013-02-07 13:01:00,26.0,25.0,-100.00,North,5,14.0,20.0,94,0.00,,,0.00,,2013-02-07 19:01:00,
2013-02-07 13:11:00,26.0,25.0,-100.00,North,0,16.0,19.0,94,0.00,,,0.00,,2013-02-07 19:11:00,
2013-02-07 13:22:00,26.0,25.0,-100.00,North,355,13.0,21.0,93,0.00,,,0.00,,2013-02-07 19:22:00,
2013-02-07 13:32:00,26.0,25.0,-100.00,North,355,14.0,17.0,92,0.00,,,0.00,,2013-02-07 19:32:00,
2013-02-07 13:41:00,26.0,25.0,-100.00,North,0,12.0,18.0,92,0.00,,,0.00,,2013-02-07 19:41:00,
2013-02-07 13:51:00,26.0,25.0,-100.00,North,5,14.0,19.0,91,0.00,,,0.00,,2013-02-07 19:51:00,
2013-02-07 14:01:00,26.0,25.0,-100.00,North,0,14.0,19.0,91,0.00,,,0.00,,2013-02-07 20:01:00,
2013-02-07 14:11:00,26.0,23.0,-100.00,North,10,16.0,20.0,91,0.00,,,0.00,,2013-02-07 20:11:00,
2013-02-07 14:21:00,26.0,25.0,-100.00,North,0,17.0,20.0,91,0.00,,,0.00,,2013-02-07 20:21:00,
2013-02-07 14:31:00,26.0,23.0,-100.00,North,0,16.0,20.0,91,0.00,,,0.00,,2013-02-07 20:31:00,
2013-02-07 14:41:00,26.0,25.0,-100.00,North,0,16.0,20.0,91,0.00,,,0.00,,2013-02-07 20:41:00,
2013-02-07 14:52:00,26.0,25.0,-100.00,North,355,15.0,19.0,91,0.00,,,0.00,,2013-02-07 20:52:00,
2013-02-07 15:01:00,26.0,25.0,-100.00,North,0,17.0,22.0,91,0.00,,,0.00,,2013-02-07 21:01:00,
2013-02-07 15:11:00,26.0,25.0,-100.00,North,0,15.0,22.0,91,0.00,,,0.00,,2013-02-07 21:11:00,
2013-02-07 15:21:00,26.0,25.0,-100.00,North,10,15.0,21.0,91,0.00,,,0.00,,2013-02-07 21:21:00,
2013-02-07 15:31:00,26.0,23.0,-100.00,North,0,14.0,19.0,90,0.00,,,0.00,,2013-02-07 21:31:00,
2013-02-07 15:42:00,26.0,23.0,-100.00,North,0,15.0,19.0,90,0.00,,,0.00,,2013-02-07 21:42:00,
2013-02-07 15:51:00,26.0,23.0,-100.00,North,0,12.0,19.0,90,0.00,,,0.00,,2013-02-07 21:51:00,
2013-02-07 16:02:00,26.0,23.0,-100.00,North,0,14.0,19.0,90,0.00,,,0.00,,2013-02-07 22:02:00,
2013-02-07 16:11:00,26.0,23.0,-100.00,North,0,16.0,21.0,90,0.00,,,0.00,,2013-02-07 22:11:00,
2013-02-07 16:21:00,26.0,23.0,-100.00,North,5,14.0,17.0,90,0.00,,,0.00,,2013-02-07 22:21:00,
2013-02-07 16:31:00,26.0,23.0,-100.00,North,5,14.0,17.0,90,0.00,,,0.00,,2013-02-07 22:31:00,
2013-02-07 16:42:00,26.0,23.0,-100.00,North,0,14.0,17.0,90,0.00,,,0.00,,2013-02-07 22:42:00,
2013-02-07 16:51:00,26.0,23.0,-100.00,North,0,15.0,17.0,90,0.00,,,0.00,,2013-02-07 22:51:00,
2013-02-07 17:01:00,26.0,23.0,-100.00,North,5,12.0,17.0,91,0.00,,,0.00,,2013-02-07 23:01:00,
2013-02-07 17:11:00,26.0,23.0,-100.00,North,0,14.0,17.0,91,0.00,,,0.00,,2013-02-07 23:11:00,
2013-02-07 17:21:00,26.0,23.0,-100.00,North,0,11.0,13.0,91,0.00,,,0.00,,2013-02-07 23:21:00,
2013-02-07 17:32:00,26.0,23.0,-100.00,North,10,11.0,13.0,91,0.00,,,0.00,,2013-02-07 23:32:00,
2013-02-07 17:41:00,26.0,23.0,-100.00,NNE,15,12.0,14.0,91,0.00,,,0.00,,2013-02-07 23:41:00,
2013-02-07 17:52:00,26.0,23.0,-100.00,NNE,15,10.0,15.0,92,0.00,,,0.00,,2013-02-07 23:52:00,
2013-02-07 18:01:00,25.0,23.0,-100.00,NNE,15,12.0,16.0,92,0.00,,,0.00,,2013-02-08 00:01:00,
2013-02-07 18:11:00,25.0,23.0,-100.00,North,10,12.0,14.0,92,0.00,,,0.00,,2013-02-08 00:11:00,
2013-02-07 18:21:00,25.0,23.0,-100.00,NNE,20,13.0,16.0,92,0.00,,,0.00,,2013-02-08 00:21:00,
2013-02-07 18:32:00,25.0,23.0,-100.00,NNE,15,12.0,15.0,92,0.00,,,0.00,,2013-02-08 00:32:00,
2013-02-07 18:41:00,25.0,23.0,-100.00,NNE,30,12.0,15.0,92,0.00,,,0.00,,2013-02-08 00:41:00,
2013-02-07 18:52:00,25.0,23.0,-100.00,NNE,30,12.0,15.0,92,0.00,,,0.00,,2013-02-08 00:52:00,
2013-02-07 19:01:00,25.0,23.0,-100.00,NNE,25,11.0,14.0,92,0.00,,,0.00,,2013-02-08 01:01:00,
2013-02-07 19:11:00,25.0,23.0,-100.00,NNE,20,9.0,14.0,92,0.00,,,0.00,,2013-02-08 01:11:00,
2013-02-07 19:21:00,25.0,23.0,-100.00,NE,40,10.0,13.0,92,0.00,,,0.00,,2013-02-08 01:21:00,
2013-02-07 19:31:00,24.0,23.0,-100.00,NNE,25,11.0,14.0,92,0.00,,,0.00,,2013-02-08 01:31:00,
2013-02-07 19:41:00,24.0,23.0,-100.00,NNE,25,11.0,12.0,93,0.00,,,0.00,,2013-02-08 01:41:00,
2013-02-07 19:51:00,24.0,23.0,-100.00,NE,35,11.0,13.0,93,0.00,,,0.00,,2013-02-08 01:51:00,
2013-02-07 20:01:00,24.0,23.0,-100.00,NE,35,11.0,14.0,93,0.00,,,0.00,,2013-02-08 02:01:00,
2013-02-07 20:11:00,24.0,23.0,-100.00,NNE,30,12.0,16.0,94,0.00,,,0.00,,2013-02-08 02:11:00,
2013-02-07 20:21:00,24.0,23.0,-100.00,NNE,30,14.0,17.0,94,0.00,,,0.00,,2013-02-08 02:21:00,
2013-02-07 20:32:00,24.0,23.0,-100.00,NE,45,12.0,16.0,95,0.00,,,0.00,,2013-02-08 02:32:00,
2013-02-07 20:42:00,23.0,21.0,-100.00,NE,55,12.0,15.0,95,0.00,,,0.00,,2013-02-08 02:42:00,
2013-02-07 20:52:00,23.0,21.0,-100.00,NE,45,12.0,14.0,95,0.00,,,0.00,,2013-02-08 02:52:00,
2013-02-07 21:01:00,23.0,21.0,-100.00,NE,45,10.0,14.0,95,0.00,,,0.00,,2013-02-08 03:01:00,
2013-02-07 21:12:00,23.0,21.0,-100.00,NE,35,10.0,14.0,95,0.00,,,0.00,,2013-02-08 03:12:00,
2013-02-07 21:22:00,22.0,21.0,-100.00,NE,50,9.0,13.0,95,0.00,,,0.00,,2013-02-08 03:22:00,
2013-02-07 21:32:00,22.0,21.0,-100.00,NE,50,12.0,15.0,95,0.00,,,0.00,,2013-02-08 03:32:00,
2013-02-07 21:41:00,22.0,21.0,-100.00,NE,50,11.0,15.0,96,0.00,,,0.00,,2013-02-08 03:41:00,
2013-02-07 21:51:00,22.0,21.0,-100.00,NE,55,9.0,14.0,96,0.00,,,0.00,,2013-02-08 03:51:00,
2013-02-07 22:01:00,22.0,21.0,-100.00,NNE,20,6.0,11.0,96,0.00,,,0.00,,2013-02-08 04:01:00,
2013-02-07 22:11:00,22.0,21.0,-100.00,NE,45,8.0,12.0,96,0.00,,,0.00,,2013-02-08 04:11:00,
2013-02-07 22:21:00,22.0,21.0,-100.00,NE,55,8.0,11.0,96,0.00,,,0.00,,2013-02-08 04:21:00,
2013-02-07 22:32:00,22.0,21.0,-100.00,NNE,20,9.0,12.0,96,0.00,,,0.00,,2013-02-08 04:32:00,
2013-02-07 22:41:00,22.0,21.0,-100.00,NNE,25,9.0,13.0,97,0.00,,,0.00,,2013-02-08 04:41:00,
2013-02-07 22:51:00,22.0,21.0,-100.00,NNE,25,11.0,14.0,97,0.00,,,0.00,,2013-02-08 04:51:00,
2013-02-07 23:02:00,22.0,21.0,-100.00,NE,40,11.0,13.0,97,0.00,,,0.00,,2013-02-08 05:02:00,
2013-02-07 23:11:00,22.0,21.0,-100.00,NE,40,9.0,12.0,97,0.00,,,0.00,,2013-02-08 05:11:00,
2013-02-07 23:22:00,22.0,21.0,-100.00,NE,55,9.0,12.0,97,0.00,,,0.00,,2013-02-08 05:22:00,
2013-02-07 23:31:00,22.0,21.0,-100.00,NE,40,9.0,12.0,98,0.00,,,0.00,,2013-02-08 05:31:00,
2013-02-07 23:41:00,22.0,21.0,-100.00,NE,35,9.0,11.0,98,0.00,,,0.00,,2013-02-08 05:41:00,
2013-02-07 23:52:00,22.0,21.0,-100.00,NE,40,9.0,12.0,98,0.00,,,0.00,,2013-02-08 05:52:00,